Simultaneous Nadir Overpasses (SNOs) Predictions

Prediction of SNOs between AQUA and GOES-15 Satellite Orbit:

Table of predicted SNOs for the next 14.0 days since TLE Epoch: 1/16/2021
Index Date Time (AQUA) AQUA Lat,Lon GOES-15 Lat,Lon Distance(km) Time Diff (sec)
1 01/17/2021 22:03:57 -0.09,-127.11 -0.28,-128.02 102.79 80
2 01/18/2021 10:25:11 1.25,-132.25 0.31,-127.95 489.27 80
3 01/19/2021 21:51:45 0.54,-124.15 -0.28,-127.97 434.37 80
4 01/20/2021 10:12:59 0.63,-129.29 0.31,-127.91 157.81 80
5 01/22/2021 10:00:47 0.01,-126.33 0.31,-127.86 173.23 80
6 01/22/2021 22:22:11 -1.12,-131.52 -0.34,-127.90 412.30 80
7 01/24/2021 22:09:59 -0.49,-128.56 -0.34,-127.84 82.00 80
8 01/26/2021 21:57:47 0.14,-125.60 -0.34,-127.77 247.61 80
9 01/27/2021 10:19:01 1.03,-130.74 0.37,-127.70 345.38 80
10 01/29/2021 10:06:49 0.40,-127.78 0.37,-127.63 16.45 80
